Location: Antioch
(38.0049°N, 121.8058°W)
Time: 07:08:53
(UTC+00:00)

BREEZE-M DEB (TANK) - Pass Details

Date: 11 February 2026
Orbit: 311 x 11313 km, 49.7° (Epoch: 9 March)

Event Time Altitude Azimuth Distance (km) Brightness Sun altitude
Exits shadow 13:49:59 17° 216° (SW) 950 4.3 -14.6°
Drops below altitude 10° 13:51:58 10° 172° (S) 1,526 5.8 -14.2°
Sets 13:55:16 0° 153° (SSE) 3,050 7.6 -13.6°
